{"data":{"norad_id":68839,"epoch":"2026-09-19T23:32:28.135680Z","epoch_age_seconds":60178,"freshness":"FRESH","line1":"1 68839U 26094A   26262.98088120  .00022308  00000+0  69063-3 0  9990","line2":"2 68839  97.2843 276.0432 0000389  89.7698 270.3589 15.33476077 22573","mean_motion":15.33476077,"eccentricity":3.89e-5,"inclination_deg":97.2843,"raan_deg":276.0432,"arg_perigee_deg":89.7698,"mean_anomaly_deg":270.3589,"bstar":0.00069063,"rev_number":2257,"period_min":93.904301579789,"perigee_km":465.18449719017,"apogee_km":465.71692831422,"semimajor_km":6843.5877127522,"source":"CELESTRAK","updated_at":"2026-09-20T09:00:44.013004Z"}}